New Deal, TX

7:13 AM CST on February 14, 2016 (GMT -0600)
Lubbock International

Weather History for KLBB - April, 2013

Change the Weather History Date:

Friday, April 12, 2013

  Actual Average Record
Temperature  
Mean Temperature 63 °F 59 °F  
Max Temperature 77 °F 74 °F 96 °F (1972)
Min Temperature 49 °F 44 °F 22 °F (1997)
Degree Days  
Heating Degree Days 2 7  
Month to date heating degree days 122 98  
Since 1 July heating degree days 3008 3252  
Cooling Degree Days 0 1  
Month to date cooling degree days 13 12  
Year to date cooling degree days 15 19  
Growing Degree Days 12 (Base 50)    
Moisture  
Dew Point 27 °F    
Average Humidity 37    
Maximum Humidity 59    
Minimum Humidity 15    
Precipitation  
Precipitation 0.00 in 0.04 in 0.68 in (1954)
Month to date precipitation 0.04 0.49  
Year to date precipitation 2.27 2.99  
Snow  
Snow 0.00 in 0.00 in 1.40 in (1980)
Month to date snowfall 0.4 0.1  
Since 1 July snowfall 4.1 8.1  
Snow Depth 0.00 in    
Sea Level Pressure  
Sea Level Pressure 29.83 in    
Wind  
Wind Speed 10 mph (SE)    
Max Wind Speed 24 mph    
Max Gust Speed 32 mph    
Visibility 10 miles    
Events      
T = Trace of Precipitation, MM = Missing Value Source: NWS Daily Summary

Daily Weather History Graph

Daily Weather History Graph

Search for Another Location

Airport or City:

Trip Planner

Search our weather history database for the weather conditions in past years. The results will help you decide how hot, cold, wet, or windy it might be!

Date:

Astronomy

Apr. 12, 2013 Rise Set
Actual Time 7:20 AM CDT 8:16 PM CDT
Civil Twilight 6:54 AM CDT 8:41 PM CDT
Nautical Twilight 6:24 AM CDT 9:12 PM CDT
Astronomical Twilight 5:53 AM CDT 9:43 PM CDT
Moon 8:37 AM CDT (4/12) 10:41 PM CDT (4/12)
Length of Visible Light 13h 47m
Length of Day
12h 56m
Waxing Crescent, 5% of the Moon is Illuminated
Apr 12
Waxing Crescent
Apr 18
First Quarter
Apr 25
Full
May 2
Last Quarter
May 9
New

Hourly Weather History & Observations

Time (CDT) Temp. Dew Point Humidity Pressure Visibility Wind Dir Wind Speed Gust Speed Precip Events Conditions
12:53 AM 53.1 °F 18.0 °F 25% 29.77 in 10.0 mi SSE 10.4 mph - N/A   Mostly Cloudy
1:53 AM 50.0 °F 19.0 °F 29% 29.79 in 10.0 mi SE 6.9 mph - N/A   Mostly Cloudy
2:53 AM 50.0 °F 19.0 °F 29% 29.78 in 10.0 mi ESE 6.9 mph - N/A   Overcast
3:53 AM 50.0 °F 21.0 °F 32% 29.77 in 10.0 mi Calm Calm - N/A   Overcast
4:53 AM 51.1 °F 21.9 °F 32% 29.78 in 10.0 mi SE 3.5 mph - N/A   Overcast
5:53 AM 50.0 °F 26.1 °F 39% 29.82 in 10.0 mi ENE 5.8 mph - N/A   Mostly Cloudy
6:53 AM 50.0 °F 27.0 °F 41% 29.84 in 10.0 mi East 9.2 mph - N/A   Mostly Cloudy
7:53 AM 50.0 °F 28.9 °F 44% 29.86 in 10.0 mi East 12.7 mph - N/A   Mostly Cloudy
8:53 AM 52.0 °F 28.9 °F 41% 29.87 in 10.0 mi East 11.5 mph - N/A   Mostly Cloudy
9:53 AM 57.9 °F 30.0 °F 35% 29.89 in 10.0 mi East 10.4 mph - N/A   Mostly Cloudy
10:53 AM 62.1 °F 30.0 °F 30% 29.88 in 10.0 mi SE 10.4 mph - N/A   Mostly Cloudy
11:53 AM 70.0 °F 31.6 °F 24% 29.86 in 10.0 mi SW 16.1 mph - N/A   Scattered Clouds
12:53 PM - - N/A% - 10.0 mi North - - N/A   Mostly Cloudy
1:53 PM 72.0 °F 32.0 °F 23% 29.94 in 10.0 mi South 3.5 mph - N/A   Mostly Cloudy
2:53 PM 75.0 °F 27.0 °F 17% 29.88 in 10.0 mi South 18.4 mph 28.8 mph N/A   Mostly Cloudy
3:53 PM 75.0 °F 26.1 °F 16% 29.85 in 9.0 mi South 18.4 mph 31.1 mph N/A   Mostly Cloudy
4:53 PM 75.0 °F 28.9 °F 18% 29.82 in 10.0 mi South 12.7 mph 24.2 mph N/A   Mostly Cloudy
5:53 PM 75.9 °F 25.0 °F 15% 29.80 in 10.0 mi South 13.8 mph 25.3 mph N/A   Overcast
6:53 PM 75.9 °F 24.1 °F 15% 29.80 in 10.0 mi SW 10.4 mph - N/A   Overcast
7:53 PM 73.0 °F 25.0 °F 17% 29.81 in 10.0 mi West 9.2 mph - N/A   Overcast
8:53 PM 68.0 °F 32.0 °F 26% 29.83 in 10.0 mi ENE 6.9 mph - N/A   Overcast
9:53 PM 66.0 °F 35.1 °F 32% 29.86 in 10.0 mi East 12.7 mph 18.4 mph N/A   Overcast
10:53 PM 60.1 °F 39.9 °F 47% 29.88 in 10.0 mi East 16.1 mph - N/A   Mostly Cloudy
11:53 PM 55.9 °F 41.0 °F 57% 29.88 in 10.0 mi East 12.7 mph - N/A   Scattered Clouds